This is the latest recevied weather packets stored in our database for station/object EB1GOD-1. If no packets are shown the sender has not sent any weather packets the latest 10 day(s).
| Time | Temp. | Humidity | Pressure | Rain* | Wind** | Luminosity | Snow |
|---|---|---|---|---|---|---|---|
| 1777498239 | 15.56° C | 86% | 1147.7 hPa | - | - | - | - |
| 1777497339 | 15° C | 86% | 1147.7 hPa | - | - | - | - |
| 1777496439 | 15.56° C | 86% | 1147.3 hPa | - | - | - | - |
| 1777495644 | 15.56° C | 86% | 1146.9 hPa | - | - | - | - |
| 1777495580 | 15.56° C | 85% | 1147.1 hPa | - | - | - | - |
| 1777495580 | 15.56° C | 86% | 1146.9 hPa | - | - | - | - |
| 1777495539 | 15.56° C | 85% | 1147.1 hPa | - | - | - | - |
| 1777494639 | 15.56° C | 86% | 1146.9 hPa | - | - | - | - |
| 1777493739 | 15.56° C | 84% | 1146.7 hPa | - | - | - | - |
| 1777492839 | 15.56° C | 82% | 1146.4 hPa | - | - | - | - |
| 1777491939 | 15.56° C | 82% | 1146.2 hPa | - | - | - | - |
| 1777491038 | 16.11° C | 79% | 1146 hPa | - | - | - | - |
| 1777490138 | 16.11° C | 79% | 1145.9 hPa | - | - | - | - |
| 1777489238 | 16.11° C | 79% | 1145.6 hPa | - | - | - | - |
| 1777488326 | 15.56° C | 80% | 1145.5 hPa | - | - | - | - |
| 1777487426 | 16.11° C | 79% | 1145.5 hPa | - | - | - | - |
| 1777486526 | 16.11° C | 79% | 1145.3 hPa | - | - | - | - |
| 1777485626 | 16.11° C | 78% | 1145.3 hPa | - | - | - | - |
| 1777484726 | 16.11° C | 77% | 1145 hPa | - | - | - | - |
| 1777483826 | 16.67° C | 75% | 1145.1 hPa | - | - | - | - |
| 1777482926 | 16.67° C | 75% | 1145.1 hPa | - | - | - | - |
| 1777482026 | 16.11° C | 75% | 1145.1 hPa | - | - | - | - |
| 1777481126 | 16.67° C | 76% | 1145 hPa | - | - | - | - |
| 1777480226 | 16.11° C | 75% | 1144.9 hPa | - | - | - | - |
| 1777479325 | 16.11° C | 75% | 1144.9 hPa | - | - | - | - |
* Rain since midnight (hover to see other rain measurements)
** Current wind speed in m/s (hover to see current wind gust speed)